BAW8789 WSSS-VHHX

Flight info

Callsign BAW8789
Flight time N/A
Altitude 60000
Route VMR6A VMR M771 DUDIS/K0867F400 M771 DOSUT/N0472F410 DCT DUMOL
Aircraft CONC/H-HSDFIRWXC/LB1D1

Departure

Time 2026-05-05 03:42
Airport Singapore Changi Airport (WSSS)

Arrival

Time N/A
Airport Hong Kong International Airport Kai Tak (VHHX)
Time Latitude Longitude Altitude Speed Heading
2026-05-05 03:24 1.34271 103.98520 36 ft 0 kts 205°
2026-05-05 03:29 1.34272 103.98520 36 ft 1 kts 205°
2026-05-05 03:30 1.34285 103.98526 36 ft 2 kts 205°
2026-05-05 03:30 1.34299 103.98533 36 ft 2 kts 205°
2026-05-05 03:30 1.34312 103.98539 36 ft 1 kts 205°
2026-05-05 03:30 1.34321 103.98543 36 ft 2 kts 196°
2026-05-05 03:31 1.34336 103.98544 36 ft 2 kts 176°
2026-05-05 03:31 1.34350 103.98541 36 ft 2 kts 158°
2026-05-05 03:31 1.34363 103.98534 37 ft 2 kts 140°
2026-05-05 03:31 1.34373 103.98522 37 ft 2 kts 122°
2026-05-05 03:32 1.34377 103.98515 37 ft 1 kts 110°
2026-05-05 03:32 1.34378 103.98511 37 ft 0 kts 112°
2026-05-05 03:35 1.34376 103.98517 37 ft 2 kts 112°
2026-05-05 03:35 1.34361 103.98548 37 ft 7 kts 114°
2026-05-05 03:35 1.34334 103.98611 36 ft 11 kts 112°
2026-05-05 03:36 1.34302 103.98687 36 ft 10 kts 112°
2026-05-05 03:36 1.34275 103.98749 35 ft 8 kts 121°
2026-05-05 03:36 1.34231 103.98771 34 ft 6 kts 188°
2026-05-05 03:36 1.34196 103.98760 34 ft 3 kts 202°
2026-05-05 03:37 1.34180 103.98753 34 ft 3 kts 203°
2026-05-05 03:37 1.34138 103.98736 35 ft 9 kts 203°
2026-05-05 03:37 1.34063 103.98704 35 ft 13 kts 203°
2026-05-05 03:37 1.33962 103.98660 35 ft 17 kts 203°
2026-05-05 03:38 1.33831 103.98605 34 ft 22 kts 203°
2026-05-05 03:38 1.33681 103.98541 35 ft 23 kts 204°
2026-05-05 03:38 1.33526 103.98474 36 ft 22 kts 202°
2026-05-05 03:38 1.33391 103.98417 37 ft 19 kts 203°
2026-05-05 03:39 1.33280 103.98370 38 ft 15 kts 203°
2026-05-05 03:39 1.33196 103.98334 40 ft 11 kts 203°
2026-05-05 03:39 1.33119 103.98303 42 ft 13 kts 202°
2026-05-05 03:39 1.33025 103.98267 41 ft 13 kts 181°
2026-05-05 03:40 1.32963 103.98329 38 ft 12 kts 113°
2026-05-05 03:40 1.32934 103.98395 36 ft 8 kts 114°
2026-05-05 03:40 1.32913 103.98444 36 ft 7 kts 113°
2026-05-05 03:40 1.32895 103.98493 36 ft 5 kts 85°
2026-05-05 03:41 1.32915 103.98515 36 ft 1 kts 23°
2026-05-05 03:41 1.32917 103.98516 36 ft 2 kts 22°
2026-05-05 03:41 1.33119 103.98600 35 ft 74 kts 23°
2026-05-05 03:41 1.33923 103.98939 33 ft 176 kts 23°
2026-05-05 03:42 1.35343 103.99538 181 ft 254 kts 22°
2026-05-05 03:42 1.37032 104.00229 867 ft 262 kts 21°
2026-05-05 03:42 1.38729 104.00879 1760 ft 267 kts 21°
2026-05-05 03:42 1.40501 104.01524 2647 ft 273 kts 20°
2026-05-05 03:43 1.42284 104.02171 3503 ft 276 kts 20°
2026-05-05 03:43 1.44111 104.02879 4160 ft 279 kts 23°
2026-05-05 03:43 1.45888 104.03664 4861 ft 280 kts 25°
2026-05-05 03:43 1.47644 104.04542 5541 ft 282 kts 29°
2026-05-05 03:44 1.49361 104.05528 6123 ft 287 kts 27°
2026-05-05 03:44 1.51288 104.05997 6144 ft 284 kts 349°
2026-05-05 03:44 1.53141 104.05376 7075 ft 289 kts 333°
2026-05-05 03:44 1.54968 104.04388 7613 ft 298 kts 327°
2026-05-05 03:45 1.56597 104.03104 8257 ft 301 kts 318°
2026-05-05 03:45 1.58205 104.01695 8300 ft 308 kts 323°
2026-05-05 03:45 1.59941 104.00432 8371 ft 300 kts 327°
2026-05-05 03:45 1.61684 103.99263 9143 ft 301 kts 328°
2026-05-05 03:46 1.63494 103.98117 9934 ft 309 kts 330°
2026-05-05 03:46 1.65427 103.96961 10480 ft 339 kts 330°
2026-05-05 03:46 1.67602 103.95703 10917 ft 380 kts 332°
2026-05-05 03:46 1.70050 103.94318 11447 ft 424 kts 332°
2026-05-05 03:47 1.72784 103.92798 11987 ft 461 kts 332°
2026-05-05 03:47 1.75674 103.91341 12649 ft 467 kts 342°
2026-05-05 03:47 1.78859 103.90688 13255 ft 465 kts
2026-05-05 03:47 1.82112 103.90729 13882 ft 467 kts 360°
2026-05-05 03:48 1.85370 103.90530 14417 ft 471 kts 357°
2026-05-05 03:48 1.88648 103.90318 14930 ft 474 kts 359°
2026-05-05 03:48 1.91995 103.90131 15449 ft 477 kts 358°
2026-05-05 03:48 1.95322 103.89915 15956 ft 480 kts 358°
2026-05-05 03:49 1.98706 103.89706 16465 ft 482 kts 358°
2026-05-05 03:49 2.02081 103.89495 16974 ft 486 kts 358°
2026-05-05 03:49 2.05483 103.89281 17481 ft 489 kts 358°
2026-05-05 03:49 2.08898 103.89065 17972 ft 493 kts 358°
2026-05-05 03:50 2.12369 103.88844 18481 ft 499 kts 358°
2026-05-05 03:50 2.15863 103.88625 19006 ft 504 kts 358°
2026-05-05 03:50 2.19375 103.88402 19492 ft 508 kts 358°
2026-05-05 03:50 2.22912 103.88178 20007 ft 513 kts 358°
2026-05-05 03:51 2.26525 103.87949 20523 ft 518 kts 358°
2026-05-05 03:51 2.30189 103.87717 21094 ft 522 kts 358°
2026-05-05 03:51 2.33826 103.87487 21674 ft 528 kts 358°
2026-05-05 03:51 2.37520 103.87404 22257 ft 531 kts
2026-05-05 03:52 2.41160 103.88245 22957 ft 531 kts 26°
2026-05-05 03:52 2.44319 103.90121 23709 ft 534 kts 40°
2026-05-05 03:52 2.47327 103.92370 24399 ft 542 kts 34°
2026-05-05 03:52 2.50572 103.94363 25025 ft 547 kts 33°
2026-05-05 03:53 2.53804 103.96405 25629 ft 551 kts 34°
2026-05-05 03:53 2.57082 103.98472 26236 ft 556 kts 33°
2026-05-05 03:53 2.60381 104.00515 26796 ft 561 kts 33°
2026-05-05 03:53 2.63764 104.02626 27180 ft 566 kts 33°
2026-05-05 03:54 2.67139 104.04722 27547 ft 571 kts 33°
2026-05-05 03:54 2.70576 104.06856 28046 ft 595 kts 33°
2026-05-05 03:54 2.74153 104.09081 28627 ft 610 kts 33°
2026-05-05 03:54 2.77862 104.11385 28499 ft 630 kts 33°
2026-05-05 03:55 2.81642 104.13731 29088 ft 637 kts 33°
2026-05-05 03:55 2.85451 104.16099 29913 ft 648 kts 32°
2026-05-05 03:55 2.89289 104.18484 30254 ft 663 kts 32°
2026-05-05 03:55 2.93288 104.20967 30823 ft 674 kts 32°
2026-05-05 03:56 2.97319 104.23472 31305 ft 686 kts 32°
2026-05-05 03:56 3.01444 104.26035 31786 ft 697 kts 32°
2026-05-05 03:56 3.05589 104.28609 32345 ft 709 kts 32°
2026-05-05 03:56 3.09856 104.31261 32922 ft 723 kts 32°
2026-05-05 03:57 3.14265 104.34001 33671 ft 737 kts 32°
2026-05-05 03:57 3.18683 104.36746 34417 ft 753 kts 32°
2026-05-05 03:57 3.23195 104.39552 35283 ft 770 kts 32°
2026-05-05 03:57 3.27885 104.42467 36003 ft 789 kts 32°
2026-05-05 03:58 3.32625 104.45415 36796 ft 807 kts 32°
2026-05-05 03:58 3.37472 104.48428 37564 ft 824 kts 32°
2026-05-05 03:58 3.42457 104.51528 38390 ft 843 kts 32°
2026-05-05 03:58 3.47486 104.54659 39334 ft 862 kts 32°
2026-05-05 03:59 3.52643 104.57867 40342 ft 884 kts 32°
2026-05-05 03:59 3.58009 104.61207 41673 ft 910 kts 32°
2026-05-05 03:59 3.63475 104.64609 43136 ft 941 kts 32°
2026-05-05 03:59 3.69155 104.68145 44993 ft 972 kts 32°
2026-05-05 04:00 3.74968 104.71764 46061 ft 1002 kts 32°
2026-05-05 04:00 3.80985 104.75507 47568 ft 1026 kts 32°
2026-05-05 04:00 3.87194 104.79375 48701 ft 1054 kts 32°
2026-05-05 04:00 3.93553 104.83334 50218 ft 1087 kts 32°
2026-05-05 04:01 4.00010 104.87357 51864 ft 1098 kts 32°
2026-05-05 04:01 4.06590 104.91454 52982 ft 1091 kts 32°
2026-05-05 04:01 4.13065 104.95491 53854 ft 1088 kts 33°
2026-05-05 04:01 4.19510 104.99508 54629 ft 1084 kts 33°
2026-05-05 04:02 4.25880 105.03479 55255 ft 1083 kts 33°
2026-05-05 04:02 4.32344 105.07510 55803 ft 1081 kts 33°
2026-05-05 04:02 4.38839 105.11562 56251 ft 1082 kts 33°
2026-05-05 04:02 4.45230 105.15548 56548 ft 1084 kts 33°
2026-05-05 04:03 4.51720 105.19597 56814 ft 1083 kts 33°
2026-05-05 04:03 4.58090 105.23573 57039 ft 1081 kts 33°
2026-05-05 04:03 4.64491 105.27568 57230 ft 1079 kts 33°
2026-05-05 04:03 4.70982 105.31620 57402 ft 1076 kts 33°
2026-05-05 04:04 4.77356 105.35601 57539 ft 1075 kts 33°
2026-05-05 04:04 4.83762 105.39642 57648 ft 1075 kts 34°
2026-05-05 04:04 4.96432 105.47918 57909 ft 1079 kts 33°
2026-05-05 04:05 5.02749 105.52023 58017 ft 1079 kts 34°
2026-05-05 04:05 5.09037 105.56137 58088 ft 1078 kts 34°
2026-05-05 04:05 5.21687 105.64372 58206 ft 1073 kts 34°
2026-05-05 04:06 5.34382 105.72646 58371 ft 1076 kts 34°
2026-05-05 04:06 5.47115 105.80952 58436 ft 1076 kts 34°
2026-05-05 04:07 5.59704 105.89169 58469 ft 1072 kts 34°
2026-05-05 04:07 5.72315 105.97404 58533 ft 1073 kts 34°
2026-05-05 04:08 5.84900 106.05625 58601 ft 1073 kts 34°
2026-05-05 04:08 5.97557 106.13899 58640 ft 1074 kts 34°
2026-05-05 04:09 6.10256 106.22204 58650 ft 1074 kts 34°
2026-05-05 04:09 6.22900 106.30478 58674 ft 1072 kts 34°
2026-05-05 04:10 6.35519 106.38741 58705 ft 1075 kts 34°
2026-05-05 04:10 6.48116 106.46995 58735 ft 1070 kts 34°
2026-05-05 04:11 6.60861 106.55350 58712 ft 1074 kts 34°
2026-05-05 04:11 6.73371 106.63556 58752 ft 1071 kts 34°
2026-05-05 04:12 6.85983 106.71835 58796 ft 1070 kts 34°
2026-05-05 04:12 6.98517 106.80067 58831 ft 1074 kts 34°
2026-05-05 04:13 7.11193 106.88398 58862 ft 1069 kts 34°
2026-05-05 04:13 7.23720 106.96637 58847 ft 1073 kts 34°
2026-05-05 04:14 7.36232 107.04872 58829 ft 1073 kts 34°
2026-05-05 04:14 7.48831 107.13169 58847 ft 1072 kts 34°
2026-05-05 04:15 7.61392 107.21446 58882 ft 1070 kts 34°
2026-05-05 04:15 7.74025 107.29778 58877 ft 1074 kts 34°
2026-05-05 04:16 7.86564 107.38055 58873 ft 1069 kts 34°
2026-05-05 04:16 7.99124 107.46351 58877 ft 1070 kts 34°
2026-05-05 04:17 8.11731 107.54683 58892 ft 1072 kts 34°
2026-05-05 04:17 8.24355 107.63032 58911 ft 1072 kts 34°
2026-05-05 04:18 8.36894 107.71334 58959 ft 1070 kts 34°
2026-05-05 04:18 8.49435 107.79642 58991 ft 1074 kts 34°
2026-05-05 04:19 8.62090 107.88032 59047 ft 1070 kts 34°
2026-05-05 04:19 8.74624 107.96350 59080 ft 1073 kts 34°
2026-05-05 04:20 8.87176 108.04687 59120 ft 1068 kts 34°
2026-05-05 04:20 8.99829 108.13094 59127 ft 1068 kts 34°
2026-05-05 04:21 9.12352 108.21425 59133 ft 1071 kts 34°
2026-05-05 04:21 9.24953 108.29816 59115 ft 1068 kts 34°
2026-05-05 04:22 9.37518 108.38188 59137 ft 1073 kts 34°
2026-05-05 04:22 9.50079 108.46566 59168 ft 1069 kts 34°
2026-05-05 04:23 9.62617 108.54936 59230 ft 1073 kts 34°
2026-05-05 04:23 9.75165 108.63319 59216 ft 1071 kts 34°
2026-05-05 04:24 9.87770 108.71750 59251 ft 1071 kts 34°
2026-05-05 04:25 10.06552 108.84324 59263 ft 1073 kts 34°
2026-05-05 04:25 10.19101 108.92737 59269 ft 1071 kts 34°
2026-05-05 04:26 10.31585 109.01114 59310 ft 1073 kts 34°
2026-05-05 04:26 10.44152 109.09555 59365 ft 1074 kts 34°
2026-05-05 04:27 10.56677 109.17974 59294 ft 1070 kts 34°
2026-05-05 04:27 10.69190 109.26394 59314 ft 1074 kts 34°
2026-05-05 04:28 10.81722 109.34837 59368 ft 1070 kts 34°
2026-05-05 04:28 10.94202 109.43253 59390 ft 1073 kts 34°
2026-05-05 04:29 11.06678 109.51675 59317 ft 1070 kts 34°
2026-05-05 04:29 11.19192 109.60159 59412 ft 1073 kts 34°
2026-05-05 04:30 11.31704 109.68633 59370 ft 1071 kts 34°
2026-05-05 04:30 11.44158 109.77079 59387 ft 1069 kts 34°
2026-05-05 04:31 11.56718 109.85613 59431 ft 1076 kts 34°
2026-05-05 04:31 11.69271 109.94154 59316 ft 1076 kts 34°
2026-05-05 04:32 11.81801 110.02687 59432 ft 1074 kts 34°
2026-05-05 04:32 11.94353 110.11244 59371 ft 1070 kts 34°
2026-05-05 04:33 12.06848 110.19772 59378 ft 1077 kts 34°
2026-05-05 04:33 12.19424 110.28365 59390 ft 1073 kts 34°
2026-05-05 04:34 12.32028 110.36987 59379 ft 1075 kts 34°
2026-05-05 04:34 12.44599 110.45598 59445 ft 1074 kts 34°
2026-05-05 04:35 12.57137 110.54195 59369 ft 1074 kts 34°
2026-05-05 04:35 12.69711 110.62827 59418 ft 1072 kts 34°
2026-05-05 04:36 12.82245 110.71443 59448 ft 1073 kts 34°
2026-05-05 04:36 12.94733 110.80038 59398 ft 1075 kts 34°
2026-05-05 04:37 13.07200 110.88627 59451 ft 1072 kts 34°
2026-05-05 04:37 13.19753 110.97289 59389 ft 1077 kts 34°
2026-05-05 04:38 13.32184 111.05875 59402 ft 1075 kts 34°
2026-05-05 04:38 13.44678 111.14516 59407 ft 1074 kts 34°
2026-05-05 04:39 13.57155 111.23158 59414 ft 1074 kts 34°
2026-05-05 04:39 13.69715 111.31866 59421 ft 1077 kts 34°
2026-05-05 04:40 13.82156 111.40504 59435 ft 1072 kts 35°
2026-05-05 04:40 13.94601 111.49156 59431 ft 1077 kts 35°
2026-05-05 04:41 14.07084 111.57847 59432 ft 1073 kts 35°
2026-05-05 04:41 14.19468 111.66480 59395 ft 1078 kts 35°
2026-05-05 04:42 14.31971 111.75207 59475 ft 1077 kts 35°
2026-05-05 04:42 14.44434 111.83920 59470 ft 1074 kts 35°
2026-05-05 04:43 14.56919 111.92660 59481 ft 1078 kts 35°
2026-05-05 04:43 14.69479 112.01463 59466 ft 1077 kts 35°
2026-05-05 04:44 14.81974 112.10252 59443 ft 1078 kts 35°
2026-05-05 04:44 14.94630 112.19158 59472 ft 1082 kts 35°
2026-05-05 04:45 15.07065 112.27919 59467 ft 1081 kts 35°
2026-05-05 04:45 15.19668 112.36812 59489 ft 1078 kts 35°
2026-05-05 04:46 15.32183 112.45656 59501 ft 1079 kts 35°
2026-05-05 04:46 15.44762 112.54560 59496 ft 1081 kts 34°
2026-05-05 04:47 15.57253 112.63413 59491 ft 1077 kts 34°
2026-05-05 04:47 15.69747 112.72282 59493 ft 1081 kts 35°
2026-05-05 04:48 15.82275 112.81190 59519 ft 1077 kts 34°
2026-05-05 04:48 15.94738 112.90063 59496 ft 1081 kts 34°
2026-05-05 04:49 16.07337 112.99046 59520 ft 1078 kts 35°
2026-05-05 04:49 16.19805 113.07955 59495 ft 1079 kts 34°
2026-05-05 04:50 16.32280 113.16878 59509 ft 1080 kts 35°
2026-05-05 04:50 16.44754 113.25816 59519 ft 1077 kts 34°
2026-05-05 04:51 16.57289 113.34812 59520 ft 1079 kts 34°
2026-05-05 04:51 16.69747 113.43765 59520 ft 1077 kts 34°
2026-05-05 04:52 16.82182 113.52719 59501 ft 1081 kts 34°
2026-05-05 04:52 16.94625 113.61691 59552 ft 1076 kts 34°
2026-05-05 04:53 17.07548 113.69982 59328 ft 1084 kts 22°
2026-05-05 04:53 17.14704 113.72758 59218 ft 1087 kts 15°
2026-05-05 04:53 17.21932 113.75031 59429 ft 1085 kts 21°
2026-05-05 04:53 17.28986 113.77918 59589 ft 1083 kts 21°
2026-05-05 04:54 17.36141 113.80698 59594 ft 1082 kts 19°
2026-05-05 04:54 17.50396 113.86194 59547 ft 1086 kts 20°
2026-05-05 04:55 17.64610 113.91675 59586 ft 1082 kts 20°
2026-05-05 04:55 17.78892 113.97223 59563 ft 1087 kts 20°
2026-05-05 04:56 17.93128 114.02767 59538 ft 1084 kts 20°
2026-05-05 04:56 18.07453 114.08352 59542 ft 1087 kts 20°
2026-05-05 04:57 18.21829 114.13961 59552 ft 1090 kts 20°
2026-05-05 04:57 18.36077 114.19532 59587 ft 1086 kts 20°
2026-05-05 04:58 18.50389 114.25142 59601 ft 1088 kts 20°
2026-05-05 04:58 18.64652 114.30738 59603 ft 1086 kts 20°
2026-05-05 04:59 18.78952 114.36361 59530 ft 1090 kts 20°
2026-05-05 04:59 18.93390 114.42047 59563 ft 1096 kts 20°
2026-05-05 05:00 19.07764 114.47720 59569 ft 1091 kts 20°
2026-05-05 05:00 19.22136 114.53398 59615 ft 1095 kts 20°
2026-05-05 05:01 19.36582 114.59120 59589 ft 1090 kts 20°
2026-05-05 05:01 19.51022 114.64848 59607 ft 1094 kts 20°
2026-05-05 05:02 19.65467 114.70589 59613 ft 1094 kts 20°
2026-05-05 05:02 19.79911 114.76344 59553 ft 1091 kts 20°
2026-05-05 05:03 19.94290 114.82081 59582 ft 1099 kts 20°
2026-05-05 05:03 20.08734 114.87856 59544 ft 1101 kts 20°
2026-05-05 05:04 20.23236 114.93664 59565 ft 1100 kts 20°
2026-05-05 05:04 20.37798 114.99508 59654 ft 1096 kts 20°
2026-05-05 05:05 20.52270 115.05330 59548 ft 1100 kts 20°
2026-05-05 05:05 20.66840 115.11199 59615 ft 1104 kts 20°
2026-05-05 05:06 20.81290 115.17037 59658 ft 1105 kts 20°
2026-05-05 05:06 20.95891 115.22944 59670 ft 1105 kts 20°
2026-05-05 05:07 21.10491 115.28866 59673 ft 1106 kts 20°
2026-05-05 05:07 21.24968 115.34750 59674 ft 1103 kts 19°
2026-05-05 05:08 21.39510 115.40670 59696 ft 1106 kts 19°
2026-05-05 05:08 21.54016 115.46588 59701 ft 1103 kts 19°
2026-05-05 05:09 21.68592 115.52550 59683 ft 1108 kts 19°
2026-05-05 05:09 21.83081 115.58489 59701 ft 1106 kts 19°
2026-05-05 05:10 21.97553 115.64434 59706 ft 1104 kts 19°
2026-05-05 05:10 22.12094 115.70419 59719 ft 1104 kts 20°
2026-05-05 05:11 22.26554 115.76384 59687 ft 1109 kts 20°
2026-05-05 05:11 22.41045 115.82374 59680 ft 1109 kts 20°